Regional Weather Roundup
Issued by NWS Sterling, VA

Home | Current Version | Previous Version | Text Only | Print | Product List | Glossary Off
Versions: 1 2 3 4 5 6 7 8 9 10 11 12 13 14 15 16 17 18 19 20 21 22 23 24 25 26 27 28 29 30 31 32 33 34 35 36 37 38 39 40 41 42 43 44 45 46 47 48 49 50

000
ASUS41 KLWX 160110
RWRLWX

REGIONAL WEATHER ROUNDUP
NATIONAL WEATHER SERVICE BALTIMORE MD/WASHINGTON DC
900 PM EDT MON SEP 15 2014

Note: "FAIR" indicates few or no clouds below 12,000 feet
with no significant weather and/or obstructions to visibility.
 TC=TEMPERATURE CELSIUS

 * =Non NWS site. Station does not report precipitation (e.g. rain,
    snow, etc.), thunder, or fog.

DCZ001-MDZ009-015-VAZ040>042-051-053>054-160200-
WASHINGTON METRO

CITY           SKY/WX    TMP DP  RH WIND       PRES   REMARKS
WASHINGTON NAT MOCLDY    70  56  61 S12       30.10F
DULLES         CLOUDY    65  55  70 S3        30.10F
ANDREWS AFB    MOCLDY    63  57  80 SE9       30.10F
QUANTICO       MOCLDY    68  60  75 S7        30.11S
COLLEGE PARK*  MOCLDY    64  57  77 CALM      30.10F
LEESBURG*      MOCLDY    64  59  82 S5        30.10F
GAITHERSBURG*  MOCLDY    63  55  77 SE8       30.14S

$$

MDZ006>007-011-014-160200-
BALTIMORE METRO

CITY           SKY/WX    TMP DP  RH WIND       PRES   REMARKS
BWI AIRPORT    CLOUDY    64  54  69 CALM      30.10F
MD SCIENCE CTR   N/A     68  53  58 MISG      30.11S
MARTIN STATE   PTCLDY    64  59  82 CALM      30.12S
ANNAPOLIS      CLOUDY    65  56  72 S6        30.10F
FORT MEADE*    CLOUDY    59  55  88 CALM      30.13S

$$

MDZ012-015-019>023-160200-
MARYLAND EASTERN SHORE

CITY           SKY/WX    TMP DP  RH WIND       PRES   REMARKS
OCEAN CITY     MOCLDY    59  55  87 CALM      30.13S
SALISBURY        N/A    N/A N/A N/A MISG        N/A
BAY BRIDGE AP*   N/A     64  54  68 SE3       30.11S
CAMBRIDGE*     MOCLDY    63  57  82 CALM      30.12S
EASTON*        MOCLDY    64  57  77 CALM      30.16R

$$

MDZ017>025-160200-
SOUTHERN MARYLAND

CITY           SKY/WX    TMP DP  RH WIND       PRES   REMARKS
PATUXENT RIVER MOCLDY    65  56  72 S3        30.12R
ST INIGOES     PTCLDY    61  55  81 CALM      30.12R
LEONARDTOWN*   PTCLDY    63  55  77 CALM      30.14S

$$

MDZ003>005-160200-
NORTH CENTRAL MARYLAND

CITY           SKY/WX    TMP DP  RH WIND       PRES   REMARKS
FREDERICK*     MOCLDY    63  59  88 CALM      30.11F
HAGERSTOWN APT MOCLDY    65  52  62 SE7       30.07F
WESTMINSTER*   MOCLDY    63  55  77 S7        30.10F

$$

MDZ501>502-160200-
WESTERN MARYLAND

CITY           SKY/WX    TMP DP  RH WIND       PRES   REMARKS
OAKLAND*       CLOUDY    54  52  94 SW3       30.13S
CUMBERLAND*    CLOUDY    63  52  67 CALM      30.11S

$$

VAZ025>031-160200-
SHENANDOAH VALLEY

CITY           SKY/WX    TMP DP  RH WIND       PRES   REMARKS
WINCHESTER*    CLOUDY    61  54  77 S3        30.08F
STAUNTON*      MOCLDY    67  58  74 S6        30.12S

$$

WVZ021-048>050-054>055-160200-
EASTERN WEST VIRGINIA PANHANDLE

CITY           SKY/WX    TMP DP  RH WIND       PRES   REMARKS
MARTINSBURG    CLOUDY    63  53  70 NW3       30.09S
PETERSBURG*    CLOUDY    61  58  90 W3        30.09S

$$

VAZ036>039-050-160200-
CENTRAL FOOTHILLS

CITY           SKY/WX    TMP DP  RH WIND       PRES   REMARKS
CHARLOTTESVILL CLOUDY    68  60  75 S10       30.10S
ORANGE*        MOCLDY    64  59  82 S3        30.12S

$$

VAZ055>057-160200-
NORTH AND CENTRAL PIEDMONT

CITY           SKY/WX    TMP DP  RH WIND       PRES   REMARKS
FREDERICKSBRG* MOCLDY    66  60  80 CALM      30.10S
STAFFORD*      MOCLDY    61  61 100 CALM      30.15R

$$

NCZ024-NYZ072-PAZ021-071-VAZ022-071-160200-
OTHER REGIONAL OBSERVATIONS

CITY           SKY/WX    TMP DP  RH WIND       PRES   REMARKS
NEW YORK CITY  PTCLDY    64  49  57 CALM      30.13F
PHILADELPHIA   MOCLDY    67  50  54 S6        30.11F
PITTSBURGH     CLOUDY    62  50  64 S5        30.05F
ROANOKE        CLOUDY    69  63  81 SE7       30.14S
RICHMOND       PTCLDY    66  59  78 S6        30.12R
RALEIGH        CLOUDY    70  65  84 CALM      30.15R

$$

ANZ530>537-160200-
MARINE OBSERVATIONS

STATION/POSITION TIME  TEMP    WIND        PRES
                       AIR SEA DIR/SP/G
                 (UTC) (F)     (DEG/KT/KT) (MB)
THOMAS PT LIGHT  0100   70 75  170/ 13/ 15 1020.2F
BALT KEY BRIDGE  0100   69     150/  8/ 10 1019.1R
COVE POINT       0100   68     210/  8/  9 1019.9S
LEWISETTA        0100   67 74  180/  4/  7 1019.5S
SOLOMONS ISLAND  0100      77                N/A
PINEY POINT      0100          180/ 11/ 13   N/A

$$



USA.gov is the U.S. government's official web portal to all federal, state and local government web resources and services.